Location: Althorst
(53.6379°N, 10.7715°E)
Time: 10:22:02
(UTC+00:00)

USA 215 - Pass Details

Date: 10 December 2019
Orbit: 1099 x 1109 km, 123.0° (Epoch: 03 January)

Event Time Altitude Azimuth Distance (km) Brightness Sun altitude
Exits shadow 17:17:57 31° 66° (ENE) 1,839 3.9 -19.5°
Maximum altitude 17:21:26 90° 354° (N) 1,110 3.2 -20.0°
Drops below altitude 10° 17:28:01 10° 249° (WSW) 2,964 6.7 -20.9°
Sets 17:30:29 0° 249° (WSW) 3,922 7.6 -21.3°
